When you browse on this site, cookies collect data to enhance your experience and personalize the content and advertising you see.
Visit our Privacy Policy to learn more. By continuing to use the site, you agree to this use of cookies and data.
  • In Sweden
  • List of Countries
  • For 7 days
  • Water Temperature
  • Weather Map
  • Weather Widgets
  • user-avatar
    Login

    Hourly Weather Trashigang

    Today, 19 August, Monday

    Time Temperature Precipitation Wind Pressure Humidity
    00:00 +20°C° 0 mm 1 mps 627 mmHg 95%
    01:00 +20°C° 0 mm 1 mps 627 mmHg 94%
    02:00 +20°C° 0 mm 1 mps 627 mmHg 94%
    03:00 +20°C° 0 mm 1 mps 626 mmHg 94%
    04:00 +20°C° 0 mm 1 mps 627 mmHg 93%
    05:00 +20°C° 0 mm 1 mps 627 mmHg 93%
    06:00 +20°C° 0 mm 1 mps 627 mmHg 94%
    07:00 +22°C° 0 mm 1 mps 628 mmHg 87%
    08:00 +24°C° 0 mm 1 mps 628 mmHg 81%
    09:00 +27°C° 0 mm 1 mps 629 mmHg 74%
    10:00 +27°C° 0.2 mm 2 mps 629 mmHg 72%
    11:00 +28°C° 0.2 mm 2 mps 628 mmHg 70%
    12:00 +28°C° 0 mm 2 mps 629 mmHg 68%
    13:00 +28°C° 0.2 mm 2 mps 628 mmHg 71%
    14:00 +28°C° 0.2 mm 2 mps 627 mmHg 73%
    15:00 +27°C° 0.2 mm 2 mps 627 mmHg 76%
    16:00 +26°C° 0.2 mm 2 mps 626 mmHg 82%
    17:00 +25°C° 0.2 mm 1 mps 626 mmHg 89%
    18:00 +23°C° 0 mm 1 mps 625 mmHg 96%
    19:00 +21°C° 0 mm 0 mps 626 mmHg 96%
    20:00 +20°C° 0 mm 0 mps 626 mmHg 97%
    21:00 +20°C° 0 mm 0 mps 627 mmHg 97%
    22:00 +19°C° 0 mm 0 mps 627 mmHg 97%
    23:00 +19°C° 0 mm 0 mps 627 mmHg 97%

    Tomorrow, 20 August, Tuesday

    Time Temperature Precipitation Wind Pressure Humidity
    00:00 +19°C° 0 mm 0 mps 627 mmHg 96%
    01:00 +19°C° 0 mm 0 mps 627 mmHg 96%
    02:00 +19°C° 0 mm 0 mps 627 mmHg 96%
    03:00 +18°C° 0 mm 0 mps 626 mmHg 95%
    04:00 +18°C° 0 mm 0 mps 626 mmHg 94%
    05:00 +18°C° 0 mm 0 mps 626 mmHg 93%
    06:00 +18°C° 0 mm 0 mps 627 mmHg 92%
    07:00 +22°C° 0 mm 1 mps 627 mmHg 86%
    08:00 +24°C° 0 mm 1 mps 628 mmHg 80%
    09:00 +26°C° 0 mm 1 mps 629 mmHg 73%
    10:00 +27°C° 0.2 mm 2 mps 628 mmHg 73%
    11:00 +27°C° 0.2 mm 2 mps 628 mmHg 72%
    12:00 +28°C° 0.2 mm 2 mps 628 mmHg 72%
    13:00 +27°C° 0.3 mm 2 mps 627 mmHg 75%
    14:00 +27°C° 0.3 mm 2 mps 627 mmHg 78%
    15:00 +27°C° 0.3 mm 2 mps 626 mmHg 81%
    16:00 +26°C° 0.2 mm 1 mps 625 mmHg 86%
    17:00 +25°C° 0.2 mm 1 mps 625 mmHg 91%
    18:00 +24°C° 0.2 mm 1 mps 624 mmHg 97%
    19:00 +21°C° 0 mm 0 mps 625 mmHg 97%
    20:00 +21°C° 0 mm 0 mps 626 mmHg 97%
    21:00 +20°C° 0 mm 0 mps 626 mmHg 98%
    22:00 +20°C° 0 mm 0 mps 626 mmHg 97%
    23:00 +20°C° 0 mm 0 mps 626 mmHg 97%

    Day after tomorrow, 21 August, Wednesday

    Time Temperature Precipitation Wind Pressure Humidity
    00:00 +20°C° 0 mm 0 mps 626 mmHg 96%
    01:00 +19°C° 0 mm 0 mps 626 mmHg 95%
    02:00 +19°C° 0 mm 0 mps 626 mmHg 94%
    03:00 +21°C° 0 mm 1 mps 626 mmHg 93%
    04:00 +21°C° 0 mm 1 mps 626 mmHg 92%
    05:00 +21°C° 0 mm 1 mps 626 mmHg 91%
    06:00 +20°C° 0 mm 1 mps 626 mmHg 90%
    07:00 +23°C° 0 mm 1 mps 627 mmHg 83%
    08:00 +25°C° 0 mm 1 mps 628 mmHg 76%
    09:00 +27°C° 0 mm 1 mps 629 mmHg 69%
    10:00 +28°C° 0.1 mm 1 mps 628 mmHg 68%
    11:00 +29°C° 0.1 mm 2 mps 628 mmHg 66%
    12:00 +30°C° 0.1 mm 2 mps 628 mmHg 65%
    13:00 +29°C° 0.3 mm 2 mps 627 mmHg 68%
    14:00 +29°C° 0.3 mm 2 mps 627 mmHg 71%
    15:00 +28°C° 0.3 mm 2 mps 626 mmHg 74%
    16:00 +27°C° 0.2 mm 2 mps 626 mmHg 81%
    17:00 +26°C° 0.2 mm 1 mps 625 mmHg 87%
    18:00 +25°C° 0.2 mm 1 mps 625 mmHg 94%
    19:00 +22°C° 0 mm 0 mps 625 mmHg 95%
    20:00 +21°C° 0 mm 0 mps 626 mmHg 96%
    21:00 +20°C° 0 mm 0 mps 626 mmHg 97%
    22:00 +20°C° 0 mm 0 mps 626 mmHg 96%
    23:00 +20°C° 0 mm 0 mps 626 mmHg 95%

    22 August, Thursday

    Time Temperature Precipitation Wind Pressure Humidity
    00:00 +22°C° 0 mm 1 mps 627 mmHg 94%
    01:00 +22°C° 0.1 mm 1 mps 626 mmHg 93%
    02:00 +21°C° 0.1 mm 1 mps 626 mmHg 93%
    03:00 +21°C° 0.1 mm 1 mps 626 mmHg 92%
    04:00 +21°C° 0 mm 1 mps 626 mmHg 91%
    05:00 +21°C° 0 mm 1 mps 626 mmHg 90%
    06:00 +21°C° 0 mm 1 mps 626 mmHg 89%
    07:00 +23°C° 0 mm 1 mps 627 mmHg 81%
    08:00 +25°C° 0 mm 1 mps 628 mmHg 74%
    09:00 +28°C° 0 mm 1 mps 628 mmHg 66%
    10:00 +29°C° 0.2 mm 2 mps 628 mmHg 65%
    11:00 +29°C° 0.2 mm 2 mps 628 mmHg 64%
    12:00 +30°C° 0.2 mm 2 mps 627 mmHg 63%
    13:00 +29°C° 0.3 mm 2 mps 626 mmHg 67%
    14:00 +29°C° 0.3 mm 2 mps 626 mmHg 70%
    15:00 +28°C° 0.3 mm 2 mps 625 mmHg 74%
    16:00 +27°C° 0.2 mm 2 mps 625 mmHg 81%
    17:00 +25°C° 0.2 mm 1 mps 624 mmHg 89%
    18:00 +24°C° 0.2 mm 1 mps 624 mmHg 97%
    19:00 +22°C° 0.1 mm 0 mps 624 mmHg 97%
    20:00 +21°C° 0.1 mm 0 mps 625 mmHg 97%
    21:00 +21°C° 0.1 mm 0 mps 625 mmHg 97%
    22:00 +20°C° 0.4 mm 0 mps 625 mmHg 97%
    23:00 +20°C° 0.4 mm 0 mps 625 mmHg 96%

    23 August, Friday

    Time Temperature Precipitation Wind Pressure Humidity
    00:00 +20°C° 0.4 mm 0 mps 625 mmHg 95%
    01:00 +20°C° 0.6 mm 0 mps 625 mmHg 94%
    02:00 +20°C° 0.6 mm 0 mps 625 mmHg 94%
    03:00 +20°C° 0.6 mm 0 mps 624 mmHg 93%
    04:00 +20°C° 0.2 mm 0 mps 625 mmHg 93%
    05:00 +19°C° 0.2 mm 0 mps 625 mmHg 92%
    06:00 +19°C° 0.2 mm 0 mps 625 mmHg 92%
    07:00 +23°C° 0.2 mm 1 mps 626 mmHg 89%
    08:00 +24°C° 0.2 mm 1 mps 626 mmHg 85%
    09:00 +26°C° 0.2 mm 1 mps 627 mmHg 82%
    10:00 +26°C° 1 mm 1 mps 626 mmHg 84%
    11:00 +26°C° 1 mm 2 mps 626 mmHg 85%
    12:00 +26°C° 1 mm 2 mps 626 mmHg 87%
    13:00 +26°C° 1 mm 2 mps 625 mmHg 88%
    14:00 +25°C° 1 mm 2 mps 625 mmHg 90%
    15:00 +25°C° 1 mm 2 mps 624 mmHg 92%
    16:00 +24°C° 0.6 mm 1 mps 624 mmHg 94%
    17:00 +23°C° 0.6 mm 1 mps 624 mmHg 96%
    18:00 +22°C° 0.6 mm 1 mps 625 mmHg 98%
    19:00 +20°C° 0.2 mm 0 mps 625 mmHg 98%
    20:00 +20°C° 0.2 mm 0 mps 626 mmHg 98%
    21:00 +19°C° 0.2 mm 0 mps 627 mmHg 97%
    22:00 +19°C° 0.7 mm 0 mps 627 mmHg 97%
    23:00 +19°C° 0.7 mm 0 mps 627 mmHg 97%

    24 August, Saturday

    Time Temperature Precipitation Wind Pressure Humidity
    00:00 +19°C° 0.7 mm 0 mps 627 mmHg 97%
    01:00 +19°C° 1.2 mm 0 mps 626 mmHg 97%
    02:00 +19°C° 1.2 mm 0 mps 626 mmHg 97%
    03:00 +19°C° 1.2 mm 0 mps 626 mmHg 97%
    04:00 +19°C° 1 mm 0 mps 626 mmHg 97%
    05:00 +19°C° 1 mm 0 mps 626 mmHg 97%
    06:00 +19°C° 1 mm 0 mps 627 mmHg 97%
    07:00 +20°C° 0.5 mm 0 mps 627 mmHg 96%
    08:00 +20°C° 0.5 mm 0 mps 628 mmHg 95%
    09:00 +23°C° 0.5 mm 1 mps 628 mmHg 94%
    10:00 +23°C° 1.5 mm 1 mps 628 mmHg 95%
    11:00 +23°C° 1.5 mm 1 mps 627 mmHg 96%
    12:00 +22°C° 1.5 mm 1 mps 627 mmHg 97%
    13:00 +21°C° 0.7 mm 0 mps 626 mmHg 96%
    14:00 +21°C° 0.7 mm 0 mps 626 mmHg 95%
    15:00 +21°C° 0.7 mm 0 mps 625 mmHg 94%
    16:00 +21°C° 0.3 mm 0 mps 625 mmHg 94%
    17:00 +21°C° 0.3 mm 0 mps 625 mmHg 94%
    18:00 +21°C° 0.3 mm 0 mps 625 mmHg 94%
    19:00 +20°C° 0.1 mm 0 mps 626 mmHg 93%
    20:00 +21°C° 0.1 mm 1 mps 626 mmHg 93%
    21:00 +21°C° 0.1 mm 1 mps 627 mmHg 92%
    22:00 +20°C° 0.2 mm 1 mps 627 mmHg 92%
    23:00 +20°C° 0.2 mm 1 mps 627 mmHg 92%
    Show more